Regional Weather Roundup
Issued by NWS Newport/Morehead, NC

Current Version | Previous Version | Graphics & Text | Print | Product List | Glossary Off
Versions: 1 2 3 4 5 6 7 8 9 10 11 12 13 14 15 16 17 18 19 20 21 22 23 24 25 26 27 28 29 30 31 32 33 34 35 36 37 38 39 40 41 42 43 44 45 46 47 48 49 50

000
ASUS42 KMHX 251424
RWRMHX
WEATHER ROUNDUP FOR EASTERN NORTH CAROLINA
NATIONAL WEATHER SERVICE NEWPORT/MOREHEAD CITY NC
1000 AM EDT SAT APR 25 2015

NOTE: "FAIR" INDICATES FEW OR NO CLOUDS BELOW 12,000 FEET
WITH NO SIGNIFICANT WEATHER AND/OR OBSTRUCTIONS TO VISIBILITY

NCZ015>017-031-032-045>047-102-103-251500-
NORTH COAST

CITY           SKY/WX    TMP DP  RH WIND       PRES   REMARKS
EDENTON        CLOUDY    57  47  69 SE7       29.95R
ELIZABETH CITY CLOUDY    57  39  51 E6        29.94R
KITTY HAWK     CLOUDY    56  38  52 SE3       29.94R
MANTEO         CLOUDY    56  40  53 SE5       29.95S

$$

NCZ045>047-081-094-103-104-251500-
CENTRAL COAST

CITY           SKY/WX    TMP DP  RH WIND       PRES   REMARKS
FRISCO         CLOUDY    57  47  69 NW9       29.94S
SWANQUARTER      N/A     61 N/A N/A W7        29.91S

$$

NCZ095-097-098-100-101-251500-
SOUTHERN COAST

CITY           SKY/WX    TMP DP  RH WIND       PRES   REMARKS
BEAUFORT       CLOUDY    65  56  72 W7        29.93S
CEDAR ISLAND     N/A     61 N/A N/A NW7       29.97F
JACKSONVILLE   CLOUDY    58  51  78 NW5       29.93S
PINEY ISLAND   CLOUDY   N/A N/A N/A NW7       29.94R
WILMINGTON     CLOUDY    67  54  63 SW8       29.93S


$$

NCZ011>013-027>030-043-044-078>080-089-090>093-098-251500-
COASTAL PLAIN

CITY           SKY/WX    TMP DP  RH WIND       PRES   REMARKS
AHOSKIE        CLOUDY    52  45  76 NE5       29.95S
CLINTON        CLOUDY    59  51  76 SW3       29.93F
ELIZABETHTOWN  RAIN      61  50  68 SW7       29.94R
GOLDSBORO      CLOUDY    58  50  75 W5        29.91F
GREENVILLE     CLOUDY    57  46  67 CALM      29.95F
HAVELOCK       CLOUDY    62  53  72 W5        29.95R
KENANSVILLE    CLOUDY    59  49  69 CALM      29.93F
KINSTON        CLOUDY    57  48  72 CALM      29.94F
NEW BERN       CLOUDY    59  49  69 NW5       29.95S
RICHLANDS      CLOUDY    59  48  67 W3        29.94S
ROCKY MOUNT    CLOUDY    54  44  69 CALM      29.92F
WASHINGTON       N/A     57  46  67 CALM      29.94S
WHITEVILLE     LGT RAIN  59  52  78 SW3       29.95R

$$

AMZ130-135-150-152-154-156-158-170-250-252-270-ANZ085-086-088-633-658-670-251500-
MARINE OBSERVATIONS

STATION/POSITION TIME  TEMP    WIND        PRES    WAVE   SWELL
                       AIR SEA DIR/SP/G            HT/PER HT/PER
                 (UTC) (F)     (DEG/KT/KT) (MB)    (FT/S) (FT/S)
CHESAPEAKE LIGHT 1400   50      60/  8/  9 1015.6
64 E VA BEACH    1350   54 60   20/  8/ 10 1013.4    2/12   2/12
DUCK             1400   56 55  120/  5/  5 1012.9
2 E DUCK         1311      54                N/A     2/13   2/13
10 NE DUCK       NOT AVBL
OREGON INLET     1400   57 56  120/  5/  6 1014.0
HATTERAS CG      1300   60 66  300/ 12/ 13 1013.3
DIAMOND BUOY     1350   64 71  310/ 16/ 19 1013.6    4/ 8   2/ 8
CAPE LOOKOUT     1400   65     260/  5/  7 1013.3
BEAUFORT LAB     1300   63 64  240/  4/  8 1012.6
27 SE WRIGHTSVLE 1400   66 70  240/ 17/ 19   N/A
5 SE WRIGHTSVLE  1308   66 65  220/ 10/ 14 1013.5
225 S CAPE HAT   1350   65 70  180/  8/ 10 1016.7    6/ 9   5/ 9
41 SE CHARLESTON 1350   71 71  180/ 12/ 16 1013.7    3/ 8   2/ 8

$$



USA.gov is the U.S. government's official web portal to all federal, state and local government web resources and services.